Theta_e
342 341 339 339 338 337 337 336 335 334 333 333 332 332 333 333 335 337 337 337 338 338 337 337 339 343 345 345 345 345 347 348 347 346 345 345 344 341 340 339 334 331
343 340 339 339 338 338 337 336 335 332 331 332 333 333 334 335 335 338 338 337 338 338 338 337 337 340 343 345 346 345 346 347 348 348 347 345 345 342 341 340 335 331
344 341 339 337 337 337 337 336 335 333 331 332 334 334 335 334 335 337 338 338 338 339 338 338 338 338 340 342 344 345 345 345 346 347 347 347 346 343 341 340 338 336
342 341 338 336 335 335 335 335 335 333 331 332 334 335 334 334 334 335 337 337 337 339 340 339 339 339 340 341 341 343 343 344 344 345 346 346 346 345 343 341 340 339
341 340 338 336 334 334 333 333 333 332 331 332 333 334 334 334 333 333 335 336 336 337 338 339 339 340 340 340 341 341 341 342 343 344 345 345 346 346 345 343 341 341
344 342 339 337 335 334 333 332 332 331 331 331 332 333 334 334 334 333 334 335 335 335 336 338 338 339 339 340 340 340 340 341 342 343 343 344 344 345 345 345 343 342
346 343 340 339 337 337 335 333 332 331 331 331 331 333 333 333 333 332 333 334 335 335 335 335 336 336 337 338 338 339 339 340 341 342 342 341 342 343 344 344 344 343
346 344 341 340 339 338 337 334 333 332 331 331 331 332 333 332 331 331 331 333 334 334 334 334 334 335 335 336 336 336 337 339 339 340 340 340 340 339 341 342 342 342
347 345 343 341 340 339 338 336 334 333 332 331 332 332 332 331 330 331 330 332 333 333 333 333 333 333 334 335 334 334 334 335 336 338 338 338 338 337 338 339 340 341
349 347 343 342 340 339 338 337 335 334 333 331 331 332 332 331 330 330 330 331 332 332 332 332 332 332 333 333 333 333 333 333 333 334 334 335 335 335 336 338 338 339
350 347 345 342 340 339 338 337 336 335 334 333 332 332 331 330 330 330 331 331 331 332 332 332 331 330 331 332 331 332 332 333 332 333 333 333 333 334 334 336 337 336
352 350 347 343 341 340 338 337 337 336 335 333 332 331 331 330 330 330 331 331 332 331 332 332 331 331 331 331 331 332 332 333 333 333 333 333 334 333 333 334 334 335
354 352 349 346 343 340 339 339 338 336 335 333 332 332 331 330 330 330 331 331 332 332 332 331 332 333 332 332 332 332 332 333 333 334 334 334 334 334 334 334 334 334
356 354 351 347 343 341 340 339 339 338 337 334 333 332 331 330 329 330 330 331 331 332 332 332 333 334 334 334 334 334 334 334 334 335 335 335 335 335 335 335 334 335
358 356 354 350 347 344 342 340 340 340 339 336 335 332 331 330 330 330 331 331 332 332 332 332 334 334 333 333 333 333 334 334 335 335 336 336 336 336 336 336 336 336
359 357 356 354 351 348 345 342 341 341 341 339 337 334 332 331 331 331 331 332 332 332 333 333 333 333 332 331 332 332 333 334 335 335 336 337 338 338 338 338 337 337
360 359 358 356 354 352 349 345 343 342 343 341 339 336 334 332 332 332 332 332 332 333 333 333 333 332 331 331 331 333 335 337 337 337 338 339 339 340 340 339 340 340
361 360 360 359 358 356 354 351 348 346 344 343 341 339 337 335 334 332 332 332 332 333 333 333 332 332 332 332 332 333 335 338 341 341 342 341 341 341 341 341 341 342
361 361 361 360 360 358 357 354 352 350 347 346 344 342 339 337 335 334 333 333 332 333 332 332 331 331 332 332 333 334 336 340 342 344 345 344 344 344 344 343 343 344
361 362 362 362 361 360 359 357 355 353 349 348 346 345 342 340 337 336 335 334 333 332 332 332 331 331 332 332 334 336 337 341 343 345 346 346 347 347 347 346 346 347
362 363 363 362 362 362 361 359 357 355 352 350 348 347 344 341 340 339 337 335 335 334 334 333 331 331 332 334 335 337 340 343 345 347 348 348 349 349 349 348 349 349
363 363 363 363 363 363 362 360 359 358 355 352 349 348 346 345 343 341 339 338 337 337 337 336 334 334 337 337 338 341 344 347 348 349 350 351 351 352 351 351 351 351
363 363 363 364 363 362 362 361 361 359 357 355 352 349 348 346 345 343 341 341 341 341 341 339 337 339 341 343 345 347 349 350 351 352 352 353 353 354 354 354 353 353
363 362 363 363 363 363 363 362 362 361 359 358 356 353 351 348 346 344 343 342 343 342 343 342 342 344 346 347 349 351 352 353 354 354 355 355 355 355 355 355 356 356
362 363 363 363 363 363 362 362 362 361 361 360 358 357 355 353 350 348 345 344 343 343 344 345 346 348 350 352 353 353 354 355 356 356 356 356 356 357 357 358 358 358
363 363 362 363 363 363 362 363 361 361 361 360 360 359 357 356 354 352 350 348 346 345 345 345 347 349 351 353 354 355 355 356 357 357 357 357 357 358 358 359 359 360
Wind_Speed
43 42 41 41 40 38 36 35 33 31 29 27 27 26 24 24 23 23 23 22 22 22 21 20 19 18 18 18 18 17 17 16 16 15 15 16 15 14 14 13 13 14
44 42 41 41 41 40 38 36 34 32 30 28 28 26 24 23 23 23 24 23 22 22 22 21 20 19 19 19 19 19 18 18 17 16 16 16 16 16 15 14 13 13
45 43 42 41 41 41 39 38 36 34 32 30 29 27 25 24 22 22 23 22 22 21 21 22 21 20 20 19 19 20 19 19 18 17 17 16 16 16 16 15 15 14
45 44 43 41 40 40 39 39 38 36 34 32 30 29 27 26 24 23 23 22 22 21 21 22 23 22 21 20 20 20 20 19 19 18 18 17 17 17 16 16 16 16
45 44 43 41 39 39 39 40 39 37 35 34 32 30 29 28 26 25 25 24 23 22 22 22 23 24 23 23 22 22 21 21 20 20 20 19 19 18 18 17 18 18
47 46 44 42 40 40 40 40 39 38 36 35 33 32 31 30 28 27 26 25 24 24 23 23 23 24 25 25 25 24 23 23 22 22 22 21 20 20 20 19 20 19
49 48 46 44 43 42 41 40 39 39 38 36 35 34 33 32 30 28 27 26 25 25 24 24 24 24 24 25 26 26 25 25 24 24 24 23 22 22 22 22 22 21
49 48 47 45 44 44 43 42 41 40 39 38 37 35 34 33 31 29 28 27 26 26 25 25 25 25 25 25 26 26 26 26 26 26 26 25 25 24 24 24 24 23
49 49 47 46 46 45 45 44 43 41 40 39 37 36 35 34 32 31 30 29 28 27 27 26 26 26 26 27 27 27 27 27 27 27 27 27 27 26 25 25 25 25
49 49 48 47 46 46 46 45 44 42 42 41 39 38 37 35 34 33 32 31 30 30 29 29 28 27 27 28 28 28 28 28 27 28 28 28 28 27 26 26 27 27
48 48 47 47 46 46 46 45 44 44 43 42 41 40 39 37 36 35 34 34 33 32 32 31 30 30 29 29 29 29 29 29 29 30 30 30 29 28 28 28 28 28
47 47 47 46 46 45 45 45 44 44 44 44 43 42 41 40 38 37 36 36 35 34 33 33 32 32 32 31 31 31 31 31 31 31 32 32 32 32 31 30 30 29
47 46 44 44 45 45 45 45 45 45 45 44 43 43 42 41 40 39 38 37 36 36 35 35 35 34 34 33 33 33 33 33 33 33 33 33 33 34 34 34 33 32
47 44 42 42 42 44 45 45 45 45 45 44 43 44 43 42 42 41 40 39 38 38 37 37 37 37 36 36 35 35 35 35 35 35 35 34 34 34 35 35 36 35
46 44 42 41 42 44 45 46 47 46 46 45 45 44 44 43 42 42 41 41 40 40 39 39 39 39 39 38 38 37 37 37 37 37 37 37 36 36 35 36 36 36
45 45 44 43 43 44 45 46 47 47 47 47 46 45 44 43 43 43 43 42 42 42 42 41 42 41 41 40 39 39 38 38 38 38 38 39 39 38 38 37 37 36
44 44 44 44 45 45 45 46 46 47 48 48 47 46 45 44 44 44 44 44 43 44 44 44 44 43 42 41 40 40 40 40 40 40 40 40 41 40 40 39 38 38
42 42 43 44 45 46 46 46 46 47 48 48 48 48 47 46 46 46 45 45 44 45 45 45 45 44 42 42 41 41 41 41 42 42 42 42 42 42 41 41 40 40
40 39 40 41 42 44 45 46 47 48 48 49 49 48 47 47 47 46 45 45 45 46 46 46 45 44 43 42 42 41 41 41 42 43 43 43 43 43 42 42 42 42
39 38 38 38 38 40 42 45 47 48 48 48 48 48 48 48 48 47 46 46 46 46 46 46 45 44 43 42 42 41 40 41 42 42 43 44 43 43 43 43 42 43
39 38 37 37 36 38 40 42 44 45 46 47 47 48 49 49 48 48 48 47 47 46 47 46 45 44 43 42 41 40 40 40 41 42 43 44 44 43 43 43 42 43
40 39 38 38 37 38 39 41 41 42 43 44 46 47 48 48 49 49 49 48 48 48 48 48 46 44 44 43 42 40 40 40 40 41 42 44 44 44 44 43 43 43
41 40 40 39 39 39 40 40 40 40 39 41 43 45 47 48 49 49 49 49 49 49 49 48 47 45 45 44 43 41 40 40 40 41 42 43 44 44 44 44 43 43
41 41 40 40 40 41 41 40 39 39 38 39 41 42 43 44 46 47 47 48 49 49 49 49 48 46 45 45 43 42 40 39 40 40 41 42 42 42 43 43 43 43
41 41 41 41 40 40 39 39 39 39 38 38 39 40 40 41 42 44 45 46 47 48 48 48 48 46 45 45 43 41 40 40 39 40 41 42 41 41 42 42 42 42
41 42 42 41 40 39 38 37 38 39 40 40 40 40 40 40 41 43 44 44 44 45 46 46 47 46 45 44 42 41 40 39 39 40 41 41 41 41 42 42 42 42
Wind_Direction
220 219 219 219 220 221 222 223 223 223 223 224 223 222 221 218 216 217 219 219 217 218 222 222 219 216 213 213 216 219 220 222 224 222 222 226 230 228 224 223 220 217
220 220 220 220 219 220 221 224 226 227 228 228 226 223 221 220 219 218 219 219 218 218 220 222 223 221 218 217 217 218 220 223 226 225 223 225 228 230 229 226 225 222
221 220 220 220 219 219 221 223 226 229 231 230 228 224 221 220 219 219 219 219 219 218 218 219 222 224 223 222 221 221 222 223 226 228 227 227 227 230 231 230 229 228
221 221 221 221 220 221 222 223 226 228 229 229 229 227 224 223 223 222 222 223 222 221 220 219 220 223 225 226 225 225 225 227 228 229 231 231 229 230 231 231 232 233
221 222 222 222 221 222 222 223 225 226 226 227 228 229 228 228 228 227 226 227 227 226 226 224 222 223 225 227 228 229 229 230 230 231 233 233 232 233 232 232 233 234
222 222 223 223 223 223 223 224 225 226 227 228 228 229 230 231 231 231 230 229 229 229 228 228 226 225 225 226 229 231 232 232 232 233 235 236 235 236 235 235 236 236
223 223 224 224 225 225 225 226 226 226 228 229 229 229 230 231 233 232 233 233 232 231 229 229 229 227 227 227 229 231 232 233 234 235 238 240 239 238 238 239 239 239
224 225 225 226 226 226 226 227 227 228 228 229 229 230 230 231 233 234 234 235 234 234 232 231 231 230 229 229 229 230 231 232 234 236 238 241 242 241 242 242 242 242
225 226 226 227 227 228 228 228 228 228 228 229 230 230 230 232 234 235 236 236 236 237 235 234 233 232 231 232 232 232 232 232 234 235 238 240 242 243 243 244 245 246
225 226 227 228 229 229 230 229 229 229 229 229 230 231 231 233 235 236 237 237 237 238 238 237 235 234 234 235 236 236 235 235 235 236 238 240 243 244 244 244 246 248
225 226 227 229 230 231 231 232 231 230 229 229 230 231 233 235 236 237 237 238 238 238 239 239 238 237 237 237 239 240 240 240 239 239 240 241 243 245 245 245 246 249
225 226 228 229 231 232 233 233 233 232 231 230 230 231 233 235 236 237 238 239 240 240 241 242 241 241 241 241 242 243 243 244 244 243 243 243 244 245 246 246 247 249
226 227 229 231 232 233 234 234 234 234 233 232 231 232 232 234 235 237 238 240 241 243 243 244 244 244 244 244 245 245 246 247 247 247 247 246 247 247 247 247 248 249
228 229 232 233 235 235 235 235 234 234 235 234 233 233 233 234 235 237 239 241 242 243 244 246 246 246 247 247 247 247 248 249 250 250 250 250 250 250 249 249 249 249
230 231 233 235 236 236 235 235 235 235 235 235 235 235 234 235 236 238 240 242 243 244 245 245 246 247 248 248 249 249 249 250 251 252 253 253 254 254 253 252 252 252
232 232 234 235 235 236 236 237 236 235 235 236 236 237 236 236 237 238 240 242 244 245 245 245 245 247 248 249 250 250 251 252 253 253 254 255 256 256 256 256 256 256
232 233 235 235 236 236 237 237 237 236 236 236 237 237 238 238 238 239 241 243 244 245 246 247 247 248 249 250 251 251 251 252 253 255 256 256 257 258 258 259 259 259
232 235 236 237 237 237 237 238 237 237 236 236 236 237 237 238 239 239 241 243 244 246 247 248 249 251 251 252 253 253 252 252 253 254 256 257 258 259 260 261 262 262
234 236 238 238 239 239 239 238 237 237 237 236 237 237 238 238 239 240 242 242 244 246 248 249 251 253 253 254 254 255 254 253 253 254 256 257 259 260 261 262 263 263
235 237 239 240 241 241 240 239 238 238 238 237 237 237 237 239 240 241 242 243 244 246 248 250 253 254 255 255 256 256 256 254 254 255 256 258 260 261 262 263 264 264
236 237 239 240 241 241 240 240 240 240 240 239 237 237 238 239 240 241 243 244 245 247 248 250 253 255 256 256 257 257 257 255 255 255 256 257 259 260 262 264 265 265
236 238 239 240 241 241 241 240 240 241 242 241 240 239 239 240 241 242 243 245 246 247 248 250 253 255 255 256 258 258 257 256 256 256 257 257 258 259 261 263 264 265
237 238 239 240 240 240 241 241 241 242 243 242 241 241 241 241 242 243 244 245 246 247 248 251 254 254 255 256 257 256 256 256 256 257 258 258 259 259 261 262 264 265
237 238 238 240 240 241 242 242 243 244 244 243 243 242 243 244 244 245 245 246 247 248 249 251 253 254 254 254 255 255 255 256 256 257 259 259 260 261 262 263 264 265
238 238 238 239 240 242 244 244 245 245 245 245 244 244 245 246 245 246 247 248 249 250 251 252 253 254 254 254 254 254 255 256 257 257 258 260 261 262 262 263 264 265
240 239 239 239 239 240 243 244 246 246 245 244 244 245 245 245 245 246 247 249 250 251 252 253 254 254 254 254 255 256 257 257 257 258 259 261 262 263 263 263 264 265